Preview of NWS' New Version of Forecast
This preview is not operational and should not be used for support decisions.
Latest weather observations around

Bullhead City, Laughlin/Bullhead International Airport (KIFP)

Using English Units (Switch to International System of Units)
Date/ Time (MST) Wind (mph) Vis. (mi) Weather Sky Cond. Temp (°F) Rel. Humidity Wind Chill (°F) Heat Index (°F) Pressure Precip. (in)
Air Dwpt 6 hour Altimeter (inHg) Sea level (inHg) 1 hr 3 hr 6 hr
Max Min
Feb 19 20:35 Calm 10 Clear CLR 50 16     25%     29.85        
Feb 19 20:15 WNW 7 10 Clear CLR 50 16     25% 47   29.84        
Feb 19 19:55 W 9 10 Clear CLR 50 16     25% 46   29.84        
Feb 19 19:35 WSW 11 10 Clear CLR 50 16     25% 46   29.84        
Feb 19 19:15 3 10 Clear CLR 50 18     27% 49   29.84        
Feb 19 18:55 W 9 10 Clear CLR 50 16     25% 46   29.83        
Feb 19 18:35 WSW 16 10 Clear CLR 52 16     24%     29.81        
Feb 19 18:15   10 Mostly Clear FEW120 52 14     22%     29.8        
Feb 19 17:55   10 Clear CLR 54 12     19%     29.79        
Feb 19 17:35 W 20 10 Clear and Windy CLR 54 12     19%     29.79        
Feb 19 17:15 W 16 10 Clear CLR 55 14     19%     29.78        
Feb 19 16:55 WSW 22 10 Clear and Windy CLR 55 12     18%     29.77        
Feb 19 16:35 WSW 18 10 Clear CLR 55 12     18%     29.76        
Feb 19 16:15 W 22 10 Mostly Clear and Windy FEW065 FEW095 FEW120 54 14     20%     29.76        
Feb 19 15:55 NW 16 10 Partly Cloudy FEW055 FEW065 SCT090 54 14     20%     29.75        
Feb 19 15:35 NW 18 10 Mostly Clear FEW090 FEW120 55 12     18%     29.73        
Feb 19 15:15   10 Mostly Clear FEW100 FEW120 55 12     18%     29.72        
Feb 19 14:55 WSW 11 10 Mostly Cloudy BKN100 57 7     13%     29.71        
Feb 19 14:35 WNW 10 10 Mostly Cloudy BKN100 57 9     14%     29.7        
Feb 19 14:15 SW 13 10 Mostly Cloudy BKN100 57 9     14%     29.7        
Feb 19 13:55 W 10 10 Mostly Clear FEW100 57 9     14%     29.7        
Feb 19 13:35 WSW 11 10 Mostly Clear FEW095 FEW120 57 10     15%     29.7        
Feb 19 13:15 SW 10 10 Clear CLR 59 10     14%     29.71        
Feb 19 12:55 WSW 10 10 Clear CLR 57 10     15%     29.72        
Feb 19 12:35 W 16 10 Clear CLR 57 10     15%     29.72        
Feb 19 12:15 W 15 10 Clear CLR 57 9     14%     29.71        
Feb 19 11:55 SW 15 10 Clear CLR 57 10     15%     29.72        
Feb 19 11:35 SW 17 10 Clear CLR 55 9     15%     29.73        
Feb 19 11:15 SSW 16 10 Clear CLR 55 9     15%     29.74        
Feb 19 10:55 SW 14 10 Clear CLR 54 7     15%     29.74        
Feb 19 10:35 SW 16 10 Clear CLR 54 9     16%     29.73        
Feb 19 10:15 SW 21 10 Clear and Windy CLR 54 9     16%     29.73        
Feb 19 09:55 SW 21 10 Clear and Windy CLR 54 5     14%     29.72        
Feb 19 09:35 SW 23 10 Mostly Clear and Windy FEW110 54 7     15%     29.72        
Feb 19 09:15   10 Partly Cloudy SCT110 52 7     16%     29.7        
Feb 19 08:55   10 Partly Cloudy FEW075 FEW090 SCT110 54 5     14%     29.69        
Feb 19 08:35   10 Mostly Cloudy FEW070 SCT080 BKN110 54 12     19%     29.68        
Feb 19 08:15   10 Cloudy BKN065 BKN080 OVC100 55 18     22%     29.68        
Feb 19 07:55 W 20 10 Cloudy and Windy OVC065 55 21     26%     29.69        
Feb 19 07:35 7 10 Cloudy OVC070 55 25     30%     29.68        
Feb 19 07:15 S 8 10 Cloudy OVC070 55 25     30%     29.67        
Feb 19 06:55 SSW 10 10 Cloudy OVC070 55 27     33%     29.67        
Feb 19 06:35 SW 10 10 Mostly Cloudy SCT070 BKN080 55 28     35%     29.67        
Feb 19 06:15 SSW 15 10 Clear CLR 55 28     35%     29.65        
Feb 19 05:55 SW 15 10 Clear CLR 55 28     35%     29.65        
Feb 19 05:35 SSW 16 10 Clear CLR 55 30     38%     29.64        
Feb 19 05:15 SW 13 10 Clear CLR 57 30     36%     29.63        
Feb 19 04:55 S 13 10 Clear CLR 57 30     36%     29.64        
Feb 19 04:35 SSW 8 10 Clear CLR 57 30     36%     29.64        
Feb 19 04:15 S 9 10 Clear CLR 57 30     36%     29.63        
Feb 19 03:55 SSW 10 10 Clear CLR 59 28     31%     29.63        
Feb 19 03:35 WSW 13 10 Clear CLR 59 28     31%     29.62        
Feb 19 03:15 SW 16 10 Clear CLR 59 28     31%     29.62        
Feb 19 02:55 SW 15 10 Clear CLR 61 32     34%     29.61        
Feb 19 02:35   10 Clear CLR 61 34     36%     29.59        
Feb 19 02:15   10 Clear CLR 63 34     34%     29.59        
Feb 19 01:55   10 Clear CLR 63 32     32%     29.59        
Feb 19 01:35   10 Clear CLR 63 32     32%     29.6        
Feb 19 01:15   10 Clear CLR 63 32     32%     29.6        
Feb 19 00:55 SSE 20 10 Clear and Windy CLR 64 32     30%     29.61        
Feb 19 00:35 SSE 16 10 Clear CLR 64 32     30%     29.61        
Feb 19 00:15 S 20 10 Clear and Windy CLR 64 32     30%     29.61        
Feb 18 23:55 S 16 10 Clear CLR 64 32     30%     29.61        
Feb 18 23:35 S 20 10 Clear and Windy CLR 64 32     30%     29.61        
Feb 18 23:15 S 22 10 Clear and Windy CLR 66 32     28%     29.61        
Feb 18 22:55 S 17 10 Clear CLR 66 32     28%     29.62        
Feb 18 22:35 S 18 10 Clear CLR 66 32     28%     29.62        
Feb 18 22:15   10 Clear CLR 68 34     28%     29.62        
Feb 18 21:55   10 Clear CLR 68 32     26%     29.62        
Feb 18 21:35 S 23 10 Clear and Windy CLR 68 32     26%     29.62        
Feb 18 21:15 S 25 10 Clear and Windy CLR 70 32     25%     29.6        
Feb 18 20:55 SSE 21 10 Clear and Windy CLR 70 32     25%     29.61        
Feb 18 20:35 SSE 18 10 Clear CLR 70 32     25%     29.61        
Feb 18 20:15 SSE 21 10 Clear and Windy CLR 70 30     23%     29.61        
Feb 18 19:55 SSE 20 10 Clear and Windy CLR 70 27     20%     29.61        
Feb 18 19:35 S 22 10 Clear and Windy CLR 72 25     17%   69 29.61        
Feb 18 19:15   10 Clear CLR 72 25     17%   69 29.61        
Feb 18 18:55 S 21 10 Clear and Windy CLR 72 25     17%   69 29.62        
Feb 18 18:35 SSE 17 10 Clear CLR 73 21     14%   71 29.63        
Feb 18 18:15 S 20 10 Clear and Windy CLR 73        %     29.63        
Feb 18 17:55 S 21 10 Clear and Windy CLR 75 19     12%   73 29.63        
Feb 18 17:35 S 24 10 Clear and Windy CLR 75        %     29.64        
Feb 18 17:15 S 25 10 Clear and Windy CLR 75 21     13%   73 29.64        
Feb 18 16:55 S 23 10 Clear and Windy CLR 75 21     13%   73 29.65        
Feb 18 16:35 S 25 10 Clear and Windy CLR 75 19     12%   73 29.65        
Feb 18 16:15   10 Clear CLR 75 19     12%   73 29.65        
Feb 18 15:55 S 24 10 Clear and Windy CLR 75 19     12%   73 29.67        
Feb 18 15:35   10 Clear CLR 75 21     13%   73 29.67        
Feb 18 15:15 S 26 10 Clear and Breezy CLR 75 21     13%   73 29.68        
Feb 18 14:55 S 20 10 Clear and Windy CLR 73 21     14%   71 29.7        
Feb 18 14:35 S 22 10 Clear and Windy CLR 75 21     13%   73 29.72        
Feb 18 14:15 S 23 10 Clear and Windy CLR 73 21     14%   71 29.73        
Feb 18 13:55 S 20 10 Clear and Windy CLR 73 21     14%   71 29.76        
Feb 18 13:35 S 22 10 Clear and Windy CLR 72 21     15%   69 29.77        
Feb 18 13:15 S 18 10 Clear CLR 72 21     15%   69 29.79        
Feb 18 12:55 S 15 10 Clear CLR 70 21     16%     29.82        
Feb 18 12:35   10 Clear CLR 70 21     16%     29.83        
Feb 18 12:15   10 Clear CLR 70 23     17%     29.85        
Feb 18 11:55 SSW 15 10 Clear CLR 68 28     23%     29.86        
Feb 18 11:35 WSW 8 10 Clear CLR 63 28     27%     29.88        
Feb 18 11:15 SW 11 10 Clear CLR 63 28     27%     29.89        
Feb 18 10:55 SW 9 10 Clear CLR 61 28     29%     29.89        
Feb 18 10:35 SW 7 10 Clear CLR 59 28     31%     29.9        
Feb 18 10:15 SW 8 10 Clear CLR 57 27     31%     29.91        
Feb 18 09:55 S 9 10 Clear CLR 57 27     31%     29.91        
Feb 18 09:35 S 7 10 Clear CLR 55 27     33%     29.91        
Feb 18 09:15 Calm 10 Clear CLR 50 27     40%     29.92        
Feb 18 08:55 Calm 10 Clear CLR 50 25     37%     29.91        
Feb 18 08:35 Calm 10 Clear CLR 48 28     46%     29.92        
Feb 18 08:15 Calm 10 Clear CLR 46 28     49%     29.91        
Feb 18 07:55 SE 7 10 Clear CLR 48 28     46% 45   29.91        
Feb 18 07:35 SE 7 10 Clear CLR 46 28     49% 43   29.92        
Feb 18 07:15 SE 3 10 Clear CLR 46 27     46% 45   29.92        
Feb 18 06:55 Calm 10 Clear CLR 46 27     46%     29.92        
Feb 18 06:35 Calm 10 Clear CLR 48 27     43%     29.93        
Feb 18 06:15 Calm 10 Clear CLR 48 27     43%     29.93        
Feb 18 05:55 Calm 10 Clear CLR 50 27     40%     29.93        
Feb 18 05:35 Calm 10 Clear CLR 50 27     40%     29.93        
Feb 18 05:15 Calm 10 Clear CLR 50 25     37%     29.93        
Feb 18 04:55 ESE 7 10 Clear CLR 48 25     40% 45   29.93        
Feb 18 04:35 Calm 10 Clear CLR 48 25     40%     29.94        
Feb 18 04:15 ESE 5 10 Clear CLR 50 25     37% 48   29.95        
Feb 18 03:55 ESE 6 10 Clear CLR 50 23     34% 48   29.95        
Feb 18 03:35 ESE 5 10 Clear CLR 50 23     34% 48   29.96        
Feb 18 03:15 NE 6 10 Clear CLR 50 27     40% 48   29.96        
Feb 18 02:55 NW 3 10 Clear CLR 50 25     37% 49   29.96        
Feb 18 02:35 SSE 6 10 Clear CLR 52 23     32%     29.96        
Feb 18 02:15 SE 5 10 Clear CLR 50 23     34% 48   29.97        
Feb 18 01:55 Calm 10 Clear CLR 50 23     34%     29.97        
Feb 18 01:35 Calm 10 Clear CLR 55 23     28%     29.98        
Feb 18 01:15 Calm 10 Clear CLR 54 23     30%     29.97        
Feb 18 00:55 SE 5 10 Clear CLR 54 23     30%     29.98        
Feb 18 00:35 SE 5 10 Clear CLR 54 23     30%     29.98        
Feb 18 00:15 ESE 3 10 Clear CLR 52 23     32%     29.98        
Feb 17 23:55 Calm 10 Clear CLR 57 21     25%     29.98        
Feb 17 23:35 Calm 10 Clear CLR 54 21     28%     29.98        
Feb 17 23:15 Calm 10 Clear CLR 55 21     26%     29.99        
Feb 17 22:55 Calm 10 Clear CLR 57 21     25%     29.99        
Feb 17 22:35 Calm 10 Clear CLR 59 21     23%     30        
Feb 17 22:15 Calm 10 Clear CLR 61 21     22%     30        
Feb 17 21:55 3 10 Clear CLR 61 21     22%     30.01        
Feb 17 21:35 ESE 7 10 Clear CLR 61 21     22%     30.01        
Feb 17 21:15 ESE 8 10 Clear CLR 61 21     22%     30.02        
Feb 17 20:55 SE 8 10 Clear CLR 61 21     22%     30.02        
Feb 17 20:35 SE 6 10 Clear CLR 61 19     20%     30.03        
Feb 17 20:15 ESE 5 10 Clear CLR 63 19     19%     30.03        
Feb 17 19:55 ESE 6 10 Clear CLR 63 18     17%     30.03        
Feb 17 19:35 SE 5 10 Clear CLR 63 14     15%     30.03        
Feb 17 19:15 S 6 10 Clear CLR 64 14     14%     30.03        
Feb 17 18:55 S 3 10 Clear CLR 66 12     12%     30.03        
Feb 17 18:35 SSW 3 10 Clear CLR 68 12     11%     30.03        
Feb 17 18:15 Calm 10 Clear CLR 70 12     11%     30.03        
Feb 17 17:55 SW 3 10 Clear CLR 70        %     30.03        
Feb 17 17:35 WSW 3 10 Clear CLR 72        %     30.04        
Feb 17 17:15 WSW 5 10 Clear CLR 72        %     30.04        
Feb 17 16:55 SSW 6 10 Clear CLR 72        %     30.05        
Feb 17 16:35 WSW 6 10 Clear CLR 72        %     30.05        
Feb 17 16:15 W 5 10 Clear CLR 72 12     10%   69 30.06        
Feb 17 15:55 NNW 3 10 Clear CLR 72 12     10%   69 30.06        
Feb 17 14:35 NNW 10 10 Clear CLR 70        %     30.1        
Feb 17 14:15 N 10 10 Clear CLR 68        %     30.11        
Feb 17 13:55 N 14 10 Clear CLR 68 16     13%     30.12        
Feb 17 13:35 N 11 10 Clear CLR 68 21     17%     30.14        
Feb 17 13:15 N 16 10 Clear CLR 66 21     18%     30.14        
Feb 17 12:55 NNE 18 10 Clear CLR 66 19     17%     30.15        
Feb 17 12:35 N 17 10 Clear CLR 64 21     19%     30.17        
Feb 17 12:15 N 17 10 Clear CLR 64 23     20%     30.18        
Feb 17 11:55 NNE 15 10 Clear CLR 64 23     20%     30.19        
Feb 17 11:35 N 15 10 Clear CLR 63 21     20%     30.2        
Feb 17 11:15 NNE 17 10 Clear CLR 63 21     20%     30.2        
Feb 17 10:55 NNE 15 10 Clear CLR 61 23     23%     30.21        
Feb 17 10:35 NNE 13 10 Clear CLR 59 23     25%     30.21        
Feb 17 10:15 N 14 10 Clear CLR 57 23     26%     30.21        
Feb 17 09:55 Calm 10 Clear CLR 54 23     30%     30.22        
Feb 17 09:35 Calm 10 Clear CLR 50 23     34%     30.22        
Feb 17 09:15 Calm 10 Clear CLR 48 23     37%     30.22        
Feb 17 08:55 SSW 3 10 Clear CLR 48 23     37% 47   30.21        
Feb 17 08:35 S 5 10 Clear CLR 46 23     39% 44   30.21        
Feb 17 08:15 S 5 10 Clear CLR 46 23     39% 44   30.2        
Feb 17 07:55 Calm 10 Clear CLR 45 23     42%     30.19        
Feb 17 07:35 Calm 10 Clear CLR 43 23     45%     30.18        
Feb 17 07:15 Calm 10 Clear CLR 43 23     45%     30.18        
Feb 17 06:55 Calm 10 Clear CLR 45 23     42%     30.17        
Feb 17 06:35 SE 3 10 Clear CLR 43 21     42% 41   30.17        
Feb 17 06:15 Calm 10 Clear CLR 45 23     42%     30.17        
Feb 17 05:55 Calm 10 Clear CLR 45 21     39%     30.16        
Feb 17 05:35 Calm 10 Clear CLR 45 21     39%     30.16        
Feb 17 05:15 Calm 10 Clear CLR 46 21     37%     30.16        
Feb 17 04:55 SSE 6 10 Clear CLR 46 21     37% 43   30.16        
Feb 17 04:35 S 5 10 Clear CLR 46 21     37% 44   30.16        
Feb 17 04:15 Calm 10 Clear CLR 50 23     34%     30.16        
Feb 17 03:55 S 5 10 Clear CLR 50 23     34% 48   30.17        
Feb 17 03:35 Calm 10 Clear CLR 52 23     32%     30.17        
Feb 17 03:15 Calm 10 Clear CLR 50 18     27%     30.17        
Feb 17 02:55 N 6 10 Clear CLR 50 19     30% 48   30.17        
Feb 17 02:35 NNE 6 10 Clear CLR 50 21     32% 48   30.17        
Feb 17 02:15 N 8 10 Clear CLR 50 27     40% 47   30.17        
Feb 17 01:55 NNE 6 10 Clear CLR 50 25     37% 48   30.17        
Feb 17 01:35 NNE 3 10 Clear CLR 50        % 49   30.17        
Feb 17 01:15 Calm 10 Clear CLR 52 27     37%     30.16        
Feb 17 00:55 N 3 10 Clear CLR 52 27     37%     30.16        
Feb 17 00:35 N 7 10 Clear CLR 54 27     35%     30.16        
Feb 17 00:15 N 8 10 Clear CLR 54 25     32%     30.15        
Feb 16 23:55 N 9 10 Clear CLR 54 27     35%     30.15        
Feb 16 23:35 NNE 5 10 Clear CLR 54 27     35%     30.15        
Feb 16 23:15 N 3 10 Clear CLR 55 19     24%     30.15        
Feb 16 22:55 N 5 10 Clear CLR 55 21     26%     30.16        
Feb 16 22:35 NE 7 10 Clear CLR 55 18     22%     30.16        
Feb 16 22:15 NNE 6 10 Clear CLR 57 18     21%     30.15        
Feb 16 21:55 N 5 10 Clear CLR 57 16     19%     30.15        
Feb 16 21:35 N 9 10 Clear CLR 59 14     17%     30.14        
Feb 16 21:15 NNE 10 10 Clear CLR 59 14     17%     30.14        
Feb 16 20:55 NNE 11 10 Clear CLR 59 16     18%     30.13        
Jun 12 04:55 Calm 10 Clear CLR 68 30     24%     29.85        
Jun 11 22:55 SSW 14 10 Clear CLR 77 39     26%   76 29.71        
Jun 11 20:35 SSE 24 10 Clear and Windy CLR 88        %     29.6        
Jun 11 18:55   10 Clear CLR 93 28     10%   88 29.57        
Jun 11 11:15 S 16 10 Clear CLR 90        %     29.69        
Jun 11 10:35 S 21 10 Clear and Windy CLR 88 32     14%   84 29.69        
Jun 11 04:35 S 11 10 Clear CLR 79 39     24%   78 29.62        
Jun 11 01:35 S 15 10 Clear CLR 86 37     18%   83 29.58        
Jun 10 18:35   10 Clear CLR 97        %     29.53        
Jun 10 17:15 S 20 10 Clear and Windy CLR 99 36     11%   93 29.55        
Jun 10 16:55 S 18 10 Clear CLR 99 36     11%   93 29.56        
Jun 10 15:35 SSE 18 10 Clear CLR 99 34     10%   93          
Notice The following observation data may not be complete
Jun 10 14:55   10 Clear CLR          %              
Jun 10 05:35 SSE 10 10 Clear CLR 82 46     28%   81 29.67        
Jun 09 20:55   10 Clear CLR 99        %     29.57        
Jun 09 10:35 SSW 11 10 Clear CLR 95 28     9%   89 29.76        
Jun 09 04:55 Calm 10 Clear CLR 81 30     16%   79 29.75        
Jun 09 02:55 SSE 6 10 Clear CLR 82 27     13%   80 29.74        
Jun 08 21:35   10 Clear CLR 97 32     10%   91 29.69        
Jun 08 17:35 SSE 16 10 Clear CLR 104 30     8%   97 29.68        
Jun 07 18:35 S 17 10 Clear CLR 102 23     6%   95 29.7        
Jun 07 16:35 S 15 10 Clear CLR 104 19     5%   96          
Jun 07 15:55 S 21 10 Clear and Windy CLR 104 18     5%   96 29.75        
Jun 07 10:15 S 18 10 Clear CLR 93 32     11%   88 29.85        
Jun 06 12:55 SSW 16 10 Partly Cloudy SCT095 104 36     10%   98 29.79        
Jun 05 18:15 SSW 13 10 Clear CLR 108 34     8%   101          
Jun 05 16:15 SSW 21 10 Clear and Windy CLR 109 32     7%   102 29.66        
Jun 05 15:15   10 Clear CLR 108 36     9%   101          
Notice The following observation data may not be complete
Jun 05 12:55   10 Clear CLR          %